Precipitable_Water
1.21 1.18 1.10 1.12 1.13 0.99 0.94 0.87 0.77 0.69 0.65 0.64 0.63 0.62 0.63 0.61 0.61 0.61 0.59 0.58 0.57 0.55
1.17 1.18 1.12 1.13 1.13 1.05 0.97 0.92 0.81 0.73 0.68 0.68 0.69 0.69 0.66 0.63 0.61 0.61 0.62 0.59 0.59 0.57
1.16 1.18 1.16 1.18 1.06 1.09 1.03 0.95 0.86 0.78 0.74 0.71 0.69 0.67 0.65 0.63 0.63 0.62 0.62 0.60 0.58 0.57
1.16 1.16 1.15 1.14 1.13 1.12 1.09 0.95 0.86 0.76 0.69 0.68 0.66 0.66 0.64 0.62 0.61 0.61 0.60 0.60 0.59 0.58
1.25 1.17 1.14 1.15 1.15 1.13 1.07 0.99 0.89 0.76 0.70 0.69 0.68 0.66 0.63 0.60 0.62 0.61 0.58 0.60 0.56 0.51
1.12 1.13 1.14 1.15 1.10 1.08 1.06 1.01 0.93 0.79 0.74 0.72 0.70 0.68 0.66 0.65 0.62 0.59 0.62 0.55 0.42 0.38
1.02 1.11 1.17 1.13 1.11 1.06 0.99 0.94 0.87 0.83 0.78 0.78 0.75 0.70 0.69 0.67 0.66 0.62 0.49 0.41 0.42 0.41
0.85 0.98 1.05 1.09 1.09 1.07 0.98 0.94 0.95 0.94 0.90 0.83 0.74 0.73 0.74 0.68 0.60 0.50 0.42 0.42 0.45 0.44
0.74 0.84 0.94 1.00 1.03 1.02 1.00 0.99 0.96 0.92 0.87 0.81 0.81 0.78 0.69 0.58 0.47 0.43 0.45 0.44 0.42 0.42
0.72 0.75 0.79 0.86 0.90 0.86 0.85 0.82 0.83 0.79 0.74 0.72 0.70 0.63 0.54 0.45 0.44 0.47 0.45 0.43 0.42 0.40
0.71 0.72 0.76 0.79 0.79 0.76 0.84 0.78 0.74 0.72 0.70 0.65 0.60 0.50 0.45 0.47 0.46 0.43 0.42 0.42 0.39 0.37
0.79 0.76 0.76 0.76 0.77 0.78 0.76 0.73 0.68 0.67 0.63 0.56 0.49 0.47 0.45 0.43 0.43 0.44 0.42 0.42 0.39 0.38
0.80 0.81 0.78 0.78 0.76 0.77 0.75 0.68 0.65 0.59 0.54 0.46 0.43 0.44 0.45 0.47 0.44 0.42 0.40 0.39 0.39 0.38
0.81 0.79 0.78 0.76 0.73 0.68 0.64 0.57 0.52 0.46 0.43 0.44 0.47 0.48 0.45 0.46 0.43 0.40 0.37 0.36 0.36 0.36
Wind_Speed
40 39 39 38 36 34 33 33 32 31 30 28 27 26 25 24 23 21 21 20 20 20
42 40 38 37 37 37 33 33 33 31 31 30 29 28 26 25 24 23 22 22 21 21
43 43 42 41 38 36 34 34 35 33 32 31 29 28 27 26 25 24 24 23 23 23
43 43 42 41 39 38 36 34 33 33 32 30 29 29 28 27 26 25 25 24 24 23
43 41 42 42 41 39 37 36 34 32 31 30 30 29 29 27 27 26 25 25 24 24
45 44 43 41 41 39 38 34 35 33 31 30 29 28 29 28 26 27 27 24 24 24
45 46 45 43 41 38 39 36 35 33 32 31 30 29 28 29 29 27 25 23 24 25
42 44 44 42 46 37 39 38 32 34 32 29 29 29 27 25 24 23 23 24 25 26
39 41 44 43 39 36 37 32 31 29 28 29 29 27 25 26 25 24 24 25 24 26
35 37 40 41 40 38 31 32 31 29 30 28 27 26 25 23 23 25 25 25 27 28
31 33 36 37 38 38 32 31 31 29 29 27 26 25 24 25 25 24 25 26 27 28
30 31 33 35 36 36 33 31 31 29 27 25 24 23 24 23 23 23 24 25 26 26
28 28 31 32 31 30 30 30 28 28 26 23 23 22 21 21 22 23 23 24 26 27
26 28 27 28 28 29 28 27 26 25 24 22 20 21 20 21 22 23 24 25 27 28
Wind_Direction
234 236 234 236 232 234 233 235 233 234 235 237 238 240 244 248 252 255 260 263 268 274
235 233 234 233 232 233 233 236 233 235 236 236 239 242 244 246 251 256 259 263 268 274
236 236 236 234 232 232 235 235 233 234 236 238 239 241 244 247 252 255 258 263 269 273
235 235 234 233 232 233 233 235 235 234 235 237 239 242 244 248 251 254 259 264 268 272
230 231 232 233 232 233 232 232 233 233 234 238 241 243 245 248 251 255 258 263 266 270
232 233 231 232 230 229 229 229 230 229 235 237 239 242 245 248 250 255 259 258 264 271
233 233 229 230 225 226 229 229 229 231 233 241 237 244 246 250 254 256 254 260 267 274
232 231 229 231 217 230 228 227 231 233 237 237 238 242 250 251 249 250 258 266 273 276
230 229 228 229 231 225 224 232 237 235 234 243 243 245 245 247 251 258 264 269 274 278
227 226 225 226 227 225 222 235 238 241 238 238 243 242 245 248 256 263 267 271 276 280
224 222 221 221 222 222 231 237 235 235 235 238 237 242 248 254 261 264 270 276 280 282
221 217 216 217 221 226 230 231 230 230 228 237 234 244 251 257 261 267 273 279 281 284
216 214 215 215 220 222 221 223 224 225 232 240 242 247 251 257 263 270 275 279 282 285
212 213 214 219 223 220 219 222 223 229 232 237 241 247 254 261 267 273 277 282 285 288